Total_Precipitation_Accumulation
0.00 0.00 0.01 0.01 0.03 0.08 0.04 0.01 0.03 0.15 0.10 0.06 0.01 0.03 0.09 0.08 0.09 0.14 0.07 0.00 0.00 0.00 0.03 0.00 0.00 0.00 0.00 0.00 0.00 0.00 0.00 0.00
0.00 0.00 0.00 0.02 0.05 0.06 0.08 0.02 0.05 0.11 0.06 0.01 0.01 0.06 0.09 0.07 0.13 0.15 0.11 0.02 0.00 0.00 0.01 0.00 0.00 0.00 0.00 0.00 0.00 0.00 0.00 0.00
0.00 0.00 0.00 0.00 0.02 0.15 0.15 0.04 0.03 0.06 0.01 0.00 0.00 0.02 0.05 0.04 0.05 0.06 0.04 0.06 0.02 0.00 0.02 0.02 0.00 0.00 0.00 0.00 0.00 0.00 0.00 0.00
0.00 0.00 0.00 0.00 0.00 0.13 0.14 0.05 0.05 0.08 0.01 0.00 0.02 0.09 0.13 0.07 0.04 0.10 0.06 0.07 0.04 0.01 0.00 0.00 0.00 0.00 0.00 0.00 0.00 0.00 0.00 0.00
0.00 0.00 0.00 0.01 0.05 0.25 0.11 0.10 0.10 0.11 0.09 0.06 0.06 0.13 0.14 0.13 0.10 0.05 0.06 0.03 0.03 0.03 0.01 0.00 0.00 0.00 0.00 0.00 0.00 0.00 0.00 0.00
0.00 0.00 0.00 0.02 0.07 0.20 0.15 0.12 0.20 0.14 0.25 0.27 0.19 0.21 0.20 0.19 0.09 0.04 0.04 0.05 0.06 0.06 0.02 0.03 0.02 0.01 0.00 0.00 0.00 0.00 0.00 0.00
0.00 0.00 0.01 0.03 0.11 0.17 0.29 0.31 0.21 0.19 0.34 0.40 0.23 0.21 0.17 0.27 0.25 0.10 0.08 0.05 0.04 0.05 0.04 0.03 0.03 0.01 0.01 0.00 0.00 0.00 0.00 0.00
0.00 0.02 0.04 0.04 0.08 0.13 0.18 0.32 0.41 0.27 0.25 0.23 0.21 0.17 0.18 0.15 0.16 0.20 0.18 0.11 0.10 0.10 0.05 0.03 0.03 0.02 0.01 0.01 0.00 0.00 0.00 0.00
0.00 0.01 0.02 0.05 0.11 0.08 0.06 0.29 0.41 0.48 0.33 0.16 0.14 0.08 0.06 0.07 0.13 0.18 0.12 0.09 0.08 0.08 0.04 0.02 0.01 0.01 0.01 0.00 0.00 0.00 0.00 0.00
0.00 0.00 0.01 0.04 0.07 0.05 0.09 0.09 0.25 0.37 0.24 0.12 0.06 0.03 0.04 0.06 0.08 0.07 0.06 0.05 0.05 0.05 0.03 0.03 0.01 0.01 0.00 0.00 0.00 0.00 0.00 0.00
0.00 0.00 0.00 0.01 0.01 0.01 0.06 0.04 0.03 0.12 0.23 0.23 0.07 0.05 0.07 0.08 0.09 0.14 0.11 0.08 0.06 0.05 0.03 0.01 0.01 0.00 0.00 0.00 0.00 0.00 0.00 0.00
0.00 0.00 0.00 0.00 0.00 0.00 0.00 0.00 0.10 0.06 0.05 0.10 0.09 0.10 0.12 0.14 0.14 0.15 0.11 0.06 0.03 0.01 0.01 0.01 0.01 0.00 0.00 0.00 0.00 0.00 0.00 0.00
0.00 0.00 0.00 0.00 0.00 0.00 0.01 0.03 0.11 0.09 0.07 0.12 0.22 0.19 0.18 0.14 0.13 0.10 0.07 0.04 0.02 0.02 0.01 0.00 0.00 0.00 0.00 0.00 0.00 0.00 0.00 0.02
0.00 0.00 0.00 0.00 0.00 0.02 0.09 0.08 0.14 0.23 0.25 0.27 0.27 0.13 0.13 0.14 0.15 0.08 0.04 0.03 0.02 0.01 0.00 0.00 0.01 0.00 0.00 0.00 0.01 0.03 0.10 0.18
0.00 0.00 0.00 0.00 0.04 0.11 0.08 0.10 0.12 0.23 0.27 0.35 0.13 0.21 0.16 0.09 0.07 0.06 0.05 0.04 0.03 0.01 0.00 0.00 0.00 0.00 0.01 0.05 0.12 0.22 0.19 0.08
0.00 0.00 0.00 0.01 0.05 0.05 0.04 0.06 0.09 0.16 0.20 0.17 0.11 0.19 0.15 0.09 0.05 0.04 0.02 0.01 0.01 0.01 0.00 0.00 0.01 0.04 0.09 0.18 0.22 0.11 0.02 0.00
0.00 0.00 0.01 0.01 0.01 0.02 0.03 0.05 0.08 0.07 0.06 0.02 0.04 0.05 0.03 0.04 0.01 0.01 0.00 0.00 0.00 0.00 0.01 0.02 0.04 0.11 0.19 0.11 0.03 0.01 0.00 0.00
0.00 0.00 0.00 0.00 0.00 0.00 0.00 0.02 0.01 0.01 0.01 0.01 0.01 0.02 0.01 0.01 0.00 0.00 0.00 0.00 0.01 0.04 0.07 0.11 0.20 0.14 0.05 0.03 0.02 0.01 0.00 0.00
0.00 0.00 0.00 0.00 0.00 0.00 0.00 0.00 0.00 0.00 0.01 0.00 0.00 0.01 0.00 0.00 0.00 0.01 0.02 0.05 0.10 0.16 0.20 0.16 0.05 0.01 0.04 0.04 0.03 0.01 0.00 0.00